Tracking 34138 objects as of 17-May-2026
HD Live streaming from Space Station
objects crossing your sky now

STARLINK-31906

Track STARLINK-31906 now!
10-day predictions
STARLINK-31906 is classified as:


NORAD ID: 59842
Int'l Code: 2024-097H
Perigee: 489.4 km
Apogee: 490.9 km
Inclination: 43.0 °
Period: 94.3 minutes
Semi major axis: 6861 km
RCS: Unknown
Launch date: May 23, 2024
Source: United States (US)
Launch site: AIR FORCE EASTERN TEST RANGE (AFETR)
Your satellite tracking list
Your tracking list is empty




NASA's NSSDC Master Catalog

Two Line Element Set (TLE):
1 59842U 24097H   26136.67986736  .00001159  00000-0  51624-4 0  9998
2 59842  43.0009 250.5080 0001068 263.1569  96.9161 15.27591279112311
Source of the keplerian elements: AFSPC